Location: Maiden
(35.5760°N, 81.2120°W)
Time: 02:11:29
(UTC-04:00)

A-11 Canister half - Pass Details

Date: 13 August 2020
Orbit: 1527 x 1682 km, 47.3° (Epoch: 25 September)

Event Time Altitude Azimuth Distance (km) Brightness Sun altitude
Rises 15:46:33 0° 290° (WNW) 4,933 12.0 52.7°
Reaches altitude 10° 15:50:00 10° 297° (WNW) 3,947 11.6 52.1°
Maximum altitude 15:59:34 44° 7° (N) 2,197 10.1 50.3°
Drops below altitude 10° 16:09:00 10° 78° (ENE) 3,889 10.8 48.5°
Sets 16:12:21 0° 85° (E) 4,856 11.2 47.9°
